Hourly Data Report for August 03, 2022

ST-JOVITE
QUEBEC
Current Station Operator: ECCC - MSC

46°04'49.000" N
74°33'21.000" W
238.50 m
703GDKB
71376
WJT

Download Data

Hourly Data (August 2022)
Hourly Data Report for August 3, 2022
TIME
LST
Temp Definition
°C
Dew Point Definition
°C
Rel Hum Definition
%
Precip. Amount Definition
mm

Wind Dir Definition
10's deg

Wind Spd Definition
km/h
Visibility Definition
km
Stn Press Definition
kPa
Hmdx Definition


Wind Chill Definition


Weather Definition


00:00 9.7 9.7 100 0.0   0   98.74     LegendNANA
01:00 9.0 9.0 100 0.0   0   98.76     LegendNANA
02:00 8.7 LegendMM LegendMM 0.0 0 1   98.78     LegendNANA
03:00 7.9 LegendMM LegendMM 0.0   0   98.77     LegendNANA
04:00 7.3 LegendMM LegendMM 0.0 0 1   98.74     LegendNANA
05:00 7.2 LegendMM LegendMM 0.0   0   98.82     LegendNANA
06:00 7.8 LegendMM LegendMM 0.0   0   98.79     LegendNANA
07:00 9.9 LegendMM LegendMM 0.0   0   98.68     LegendNANA
08:00 14.9 14.7 99 0.0 27 2   98.72     LegendNANA
09:00 17.8 14.0 78 0.0 17 3   98.69     LegendNANA
10:00 20.1 12.7 62 0.0 22 8   98.82     LegendNANA
11:00 21.5 12.9 58 0.0 17 4   98.71     LegendNANA
12:00 21.9 14.0 61 0.0 22 5   98.67 25   LegendNANA
13:00 22.0 13.4 58 0.0 18 4   98.56 25   LegendNANA
14:00 22.3 15.6 66 0.0 24 4   98.53 27   LegendNANA
15:00 23.1 14.7 59 0.0 18 5   98.41 27   LegendNANA
16:00 23.3 15.1 60 0.0 22 8   98.42 27   LegendNANA
17:00 23.2 17.0 68 0.0 21 5   98.44 28   LegendNANA
18:00 22.7 17.5 73 0.0 18 2   98.37 28   LegendNANA
19:00 22.5 17.5 74 0.0 20 4   98.34 28   LegendNANA
20:00 21.9 16.5 72 0.0 21 3   98.42 27   LegendNANA
21:00 20.5 16.7 79 0.0   0   98.41 26   LegendNANA
22:00 20.1 17.2 83 0.0   0   98.40 26   LegendNANA
23:00 20.2 17.6 85 0.0 18 1   98.37 26   LegendNANA

Notes on Data Quality.

Legend

  • E = Estimated
  • M = Missing
  • NA = Not Available*
  • [empty] = Indicates an unobserved value
Date modified: